TimeEST,TemperatureF,Dew PointF,Humidity,Sea Level PressureIn,VisibilityMPH,Wind Direction,Wind SpeedMPH,Gust SpeedMPH,PrecipitationIn,Events,Conditions,WindDirDegrees,DateUTC
12:54 AM,41.0,39.9,96,29.94,-9999.0,North,-9999.0,-,N/A,,Unknown,0,2012-12-03 05:54:00
1:54 AM,39.9,39.0,97,29.95,-9999.0,North,-9999.0,-,N/A,,Unknown,0,2012-12-03 06:54:00
2:54 AM,41.0,39.9,96,29.96,-9999.0,North,-9999.0,-,N/A,,Unknown,0,2012-12-03 07:54:00
3:54 AM,42.1,41.0,96,29.98,-9999.0,North,-9999.0,-,N/A,,Unknown,0,2012-12-03 08:54:00
4:54 AM,42.1,39.9,92,30.01,-9999.0,North,-9999.0,-,N/A,,Unknown,0,2012-12-03 09:54:00
5:54 AM,46.0,41.0,83,30.04,-9999.0,North,-9999.0,-,0.01,,Unknown,0,2012-12-03 10:54:00
6:54 AM,44.1,37.9,79,30.08,-9999.0,North,-9999.0,-,N/A,,Unknown,0,2012-12-03 11:54:00
7:54 AM,41.0,36.0,82,30.13,-9999.0,North,-9999.0,-,N/A,,Unknown,0,2012-12-03 12:54:00
8:54 AM,39.9,35.1,83,30.17,-9999.0,North,-9999.0,-,N/A,,Unknown,0,2012-12-03 13:54:00
9:54 AM,39.0,35.1,86,30.20,-9999.0,North,-9999.0,-,N/A,,Unknown,0,2012-12-03 14:54:00
10:54 AM,37.9,34.0,86,30.21,-9999.0,North,-9999.0,-,N/A,,Unknown,0,2012-12-03 15:54:00
11:54 AM,37.9,33.1,83,30.22,-9999.0,North,-9999.0,-,N/A,,Unknown,0,2012-12-03 16:54:00
12:54 PM,37.9,34.0,86,30.23,-9999.0,North,-9999.0,-,N/A,,Unknown,0,2012-12-03 17:54:00
1:54 PM,39.0,33.1,79,30.22,-9999.0,North,-9999.0,-,N/A,,Unknown,0,2012-12-03 18:54:00
2:54 PM,39.0,33.1,79,30.25,-9999.0,North,-9999.0,-,N/A,,Unknown,0,2012-12-03 19:54:00
3:54 PM,37.9,33.1,83,30.26,-9999.0,North,-9999.0,-,N/A,,Unknown,0,2012-12-03 20:54:00
4:54 PM,37.0,33.1,86,30.26,-9999.0,North,-9999.0,-,N/A,,Unknown,0,2012-12-03 21:54:00
5:54 PM,37.0,33.1,86,30.25,-9999.0,North,-9999.0,-,N/A,,Unknown,0,2012-12-03 22:54:00
6:54 PM,37.0,33.1,86,30.26,-9999.0,North,-9999.0,-,N/A,,Unknown,0,2012-12-03 23:54:00
7:54 PM,36.0,33.1,89,30.27,-9999.0,North,-9999.0,-,N/A,,Unknown,0,2012-12-04 00:54:00
8:54 PM,35.1,33.1,92,30.28,-9999.0,North,-9999.0,-,N/A,,Unknown,0,2012-12-04 01:54:00
9:54 PM,35.1,33.1,92,30.28,-9999.0,North,-9999.0,-,N/A,,Unknown,0,2012-12-04 02:54:00
10:54 PM,35.1,32.0,89,30.29,-9999.0,North,-9999.0,-,N/A,,Unknown,0,2012-12-04 03:54:00
11:54 PM,35.1,32.0,89,30.29,-9999.0,North,-9999.0,-,N/A,,Unknown,0,2012-12-04 04:54:00